This is the latest recevied weather packets stored in our database for station/object OK3MS-5. If no packets are shown the sender has not sent any weather packets the latest 10 day(s).
| Time | Temp. | Humidity | Pressure | Rain* | Wind** | Luminosity | Snow |
|---|---|---|---|---|---|---|---|
| 1776960304 | 17.22° C | 22% | 1016.3 hPa | 0 mm | - | 175 W/m² | - |
| 1776960002 | 17.22° C | 22% | 1016.4 hPa | 0 mm | - | 187 W/m² | - |
| 1776959704 | 17.22° C | 23% | 1016.4 hPa | 0 mm | - | 202 W/m² | - |
| 1776959402 | 17.22° C | 22% | 1016.4 hPa | 0 mm | - | 214 W/m² | - |
| 1776959102 | 17.22° C | 22% | 1016.5 hPa | 0 mm | - | 227 W/m² | - |
| 1776958804 | 17.22° C | 21% | 1016.5 hPa | 0 mm | - | 241 W/m² | - |
| 1776958524 | 17.22° C | 21% | 1016.5 hPa | 0 mm | - | 255 W/m² | - |
| 1776958204 | 17.22° C | 21% | 1016.6 hPa | 0 mm | - | 269 W/m² | - |
| 1776957904 | 17.22° C | 21% | 1016.7 hPa | 0 mm | - | 283 W/m² | - |
| 1776957604 | 17.22° C | 21% | 1016.6 hPa | 0 mm | - | 299 W/m² | - |
| 1776957303 | 17.78° C | 20% | 1016.8 hPa | 0 mm | - | 310 W/m² | - |
| 1776957002 | 17.78° C | 22% | 1016.7 hPa | 0 mm | - | 324 W/m² | - |
| 1776956704 | 17.78° C | 21% | 1016.6 hPa | 0 mm | - | 337 W/m² | - |
| 1776956403 | 17.78° C | 21% | 1016.8 hPa | 0 mm | - | 351 W/m² | - |
| 1776956104 | 17.78° C | 23% | 1016.7 hPa | 0 mm | - | 365 W/m² | - |
| 1776955803 | 17.78° C | 23% | 1016.8 hPa | 0 mm | - | 382 W/m² | - |
| 1776955503 | 17.78° C | 22% | 1016.9 hPa | 0 mm | - | 392 W/m² | - |
| 1776955204 | 17.22° C | 22% | 1017 hPa | 0 mm | - | 405 W/m² | - |
| 1776954903 | 17.78° C | 23% | 1017 hPa | 0 mm | - | 420 W/m² | - |
| 1776954604 | 17.78° C | 23% | 1016.9 hPa | 0 mm | - | 434 W/m² | - |
| 1776954303 | 17.22° C | 23% | 1016.8 hPa | 0 mm | - | 444 W/m² | - |
| 1776954003 | 17.22° C | 22% | 1017.1 hPa | 0 mm | - | 456 W/m² | - |
| 1776953706 | 17.78° C | 21% | 1017 hPa | 0 mm | - | 469 W/m² | - |
| 1776953405 | 17.22° C | 23% | 1017 hPa | 0 mm | - | 480 W/m² | - |
| 1776953103 | 17.22° C | 22% | 1017.2 hPa | 0 mm | - | 492 W/m² | - |
* Rain latest hour (hover to see other rain measurements)
** Current wind speed in m/s (hover to see current wind gust speed)